When you browse on this site, cookies collect data to enhance your experience and personalize the content and advertising you see.
Visit our Privacy Policy to learn more. By continuing to use the site, you agree to this use of cookies and data.
  • In Austria
  • List of Countries
  • For 7 days
  • Water Temperature
  • Weather Map
  • News
  • Weather Widgets
  • user-avatar
    Login

    Hourly Weather La Sierra

    Today, 17 November, Sunday

    Time Temperature Precipitation Wind Pressure Humidity
    00:00 +16°C° 0.5 mm 0 mps 621 mmHg 98%
    01:00 +16°C° 0 mm 0 mps 621 mmHg 98%
    02:00 +16°C° 0.2 mm 0 mps 621 mmHg 98%
    03:00 +16°C° 0.2 mm 0 mps 620 mmHg 98%
    04:00 +16°C° 0.2 mm 0 mps 620 mmHg 97%
    05:00 +16°C° 0.1 mm 0 mps 621 mmHg 97%
    06:00 +16°C° 0.1 mm 0 mps 621 mmHg 96%
    07:00 +17°C° 0 mm 0 mps 622 mmHg 93%
    08:00 +18°C° 0.1 mm 0 mps 622 mmHg 89%
    09:00 +21°C° 0.1 mm 1 mps 623 mmHg 86%
    10:00 +22°C° 0.1 mm 1 mps 623 mmHg 82%
    11:00 +23°C° 0.6 mm 1 mps 623 mmHg 80%
    12:00 +23°C° 0.6 mm 1 mps 622 mmHg 79%
    13:00 +24°C° 0.6 mm 1 mps 622 mmHg 77%
    14:00 +23°C° 1.7 mm 1 mps 621 mmHg 82%
    15:00 +22°C° 1.7 mm 1 mps 621 mmHg 87%
    16:00 +22°C° 1.7 mm 1 mps 620 mmHg 92%
    17:00 +21°C° 0.9 mm 1 mps 621 mmHg 94%
    18:00 +18°C° 0.9 mm 0 mps 621 mmHg 95%
    19:00 +17°C° 0.9 mm 0 mps 621 mmHg 96%
    20:00 +17°C° 0.4 mm 0 mps 621 mmHg 96%
    21:00 +17°C° 0.4 mm 0 mps 622 mmHg 97%
    22:00 +17°C° 0.4 mm 0 mps 622 mmHg 97%
    23:00 +17°C° 0.2 mm 0 mps 622 mmHg 97%

    Tomorrow, 18 November, Monday

    Time Temperature Precipitation Wind Pressure Humidity
    00:00 +16°C° 0.2 mm 0 mps 621 mmHg 97%
    01:00 +16°C° 0.2 mm 0 mps 621 mmHg 97%
    02:00 +16°C° 0.3 mm 0 mps 621 mmHg 97%
    03:00 +16°C° 0.3 mm 0 mps 621 mmHg 98%
    04:00 +16°C° 0.3 mm 0 mps 620 mmHg 98%
    05:00 +16°C° 0.3 mm 0 mps 621 mmHg 98%
    06:00 +16°C° 0.3 mm 0 mps 621 mmHg 98%
    07:00 +16°C° 0.3 mm 0 mps 622 mmHg 98%
    08:00 +17°C° 0.4 mm 0 mps 622 mmHg 96%
    09:00 +18°C° 0.4 mm 0 mps 623 mmHg 94%
    10:00 +19°C° 0.4 mm 0 mps 623 mmHg 92%
    11:00 +20°C° 0.8 mm 0 mps 623 mmHg 89%
    12:00 +22°C° 0.8 mm 1 mps 623 mmHg 85%
    13:00 +23°C° 0.8 mm 1 mps 623 mmHg 82%
    14:00 +23°C° 1.9 mm 1 mps 622 mmHg 85%
    15:00 +22°C° 1.9 mm 1 mps 622 mmHg 89%
    16:00 +21°C° 1.9 mm 1 mps 621 mmHg 93%
    17:00 +20°C° 3.8 mm 1 mps 621 mmHg 94%
    18:00 +19°C° 3.8 mm 1 mps 621 mmHg 95%
    19:00 +18°C° 3.8 mm 1 mps 621 mmHg 96%
    20:00 +18°C° 5.4 mm 1 mps 621 mmHg 97%
    21:00 +16°C° 5.4 mm 0 mps 622 mmHg 97%
    22:00 +16°C° 5.4 mm 0 mps 622 mmHg 98%
    23:00 +15°C° 1.5 mm 0 mps 622 mmHg 98%

    Day after tomorrow, 19 November, Tuesday

    Time Temperature Precipitation Wind Pressure Humidity
    00:00 +15°C° 1.5 mm 0 mps 622 mmHg 98%
    01:00 +15°C° 1.5 mm 0 mps 622 mmHg 98%
    02:00 +15°C° 0.6 mm 0 mps 621 mmHg 98%
    03:00 +15°C° 0.6 mm 0 mps 621 mmHg 98%
    04:00 +15°C° 0.6 mm 0 mps 621 mmHg 98%
    05:00 +15°C° 0 mm 0 mps 621 mmHg 97%
    06:00 +15°C° 0 mm 0 mps 622 mmHg 96%
    07:00 +16°C° 0 mm 0 mps 622 mmHg 96%
    08:00 +17°C° 0.1 mm 0 mps 623 mmHg 90%
    09:00 +21°C° 0.1 mm 1 mps 624 mmHg 85%
    10:00 +22°C° 0.1 mm 1 mps 625 mmHg 80%
    11:00 +23°C° 0.7 mm 1 mps 624 mmHg 80%
    12:00 +23°C° 0.7 mm 1 mps 624 mmHg 80%
    13:00 +23°C° 0.7 mm 1 mps 623 mmHg 80%
    14:00 +22°C° 1.5 mm 1 mps 623 mmHg 84%
    15:00 +21°C° 1.5 mm 1 mps 622 mmHg 87%
    16:00 +18°C° 1.5 mm 0 mps 621 mmHg 91%
    17:00 +18°C° 1.5 mm 0 mps 621 mmHg 92%
    18:00 +17°C° 1.5 mm 0 mps 622 mmHg 94%
    19:00 +16°C° 1.5 mm 0 mps 622 mmHg 96%
    20:00 +16°C° 0.3 mm 0 mps 622 mmHg 96%
    21:00 +16°C° 0.3 mm 0 mps 622 mmHg 96%
    22:00 +16°C° 0.3 mm 0 mps 623 mmHg 96%
    23:00 +16°C° 0.1 mm 0 mps 623 mmHg 97%

    20 November, Wednesday

    Time Temperature Precipitation Wind Pressure Humidity
    00:00 +15°C° 0.1 mm 0 mps 622 mmHg 97%
    01:00 +15°C° 0.1 mm 0 mps 622 mmHg 97%
    02:00 +15°C° 0.3 mm 0 mps 622 mmHg 97%
    03:00 +15°C° 0.3 mm 0 mps 622 mmHg 97%
    04:00 +15°C° 0.3 mm 0 mps 622 mmHg 97%
    05:00 +16°C° 0.3 mm 0 mps 622 mmHg 96%
    06:00 +16°C° 0.3 mm 0 mps 622 mmHg 96%
    07:00 +16°C° 0.3 mm 0 mps 623 mmHg 95%
    08:00 +17°C° 0.3 mm 0 mps 623 mmHg 92%
    09:00 +18°C° 0.3 mm 0 mps 624 mmHg 89%
    10:00 +19°C° 0.3 mm 0 mps 624 mmHg 86%
    11:00 +20°C° 0.6 mm 0 mps 624 mmHg 85%
    12:00 +23°C° 0.6 mm 1 mps 624 mmHg 84%
    13:00 +23°C° 0.6 mm 1 mps 623 mmHg 83%
    14:00 +22°C° 1.6 mm 1 mps 623 mmHg 86%
    15:00 +22°C° 1.6 mm 1 mps 622 mmHg 89%
    16:00 +21°C° 1.6 mm 1 mps 621 mmHg 92%
    17:00 +18°C° 5 mm 0 mps 622 mmHg 94%
    18:00 +17°C° 5 mm 0 mps 622 mmHg 96%
    19:00 +16°C° 5 mm 0 mps 622 mmHg 97%
    20:00 +16°C° 3.5 mm 0 mps 622 mmHg 98%
    21:00 +16°C° 3.5 mm 0 mps 623 mmHg 98%
    22:00 +16°C° 3.5 mm 0 mps 623 mmHg 98%
    23:00 +16°C° 0.8 mm 0 mps 623 mmHg 98%

    21 November, Thursday

    Time Temperature Precipitation Wind Pressure Humidity
    00:00 +15°C° 0.8 mm 0 mps 622 mmHg 97%
    01:00 +15°C° 0.8 mm 0 mps 622 mmHg 97%
    02:00 +15°C° 0.1 mm 0 mps 622 mmHg 97%
    03:00 +15°C° 0.1 mm 0 mps 622 mmHg 97%
    04:00 +15°C° 0.1 mm 0 mps 621 mmHg 96%
    05:00 +15°C° 0 mm 0 mps 622 mmHg 96%
    06:00 +15°C° 0 mm 0 mps 622 mmHg 95%
    07:00 +16°C° 0 mm 0 mps 623 mmHg 94%
    08:00 +17°C° 0.1 mm 0 mps 624 mmHg 90%
    09:00 +20°C° 0.1 mm 1 mps 624 mmHg 85%
    10:00 +22°C° 0.1 mm 1 mps 625 mmHg 80%
    11:00 +22°C° 0.8 mm 1 mps 624 mmHg 82%
    12:00 +22°C° 0.8 mm 1 mps 624 mmHg 83%
    13:00 +22°C° 0.8 mm 1 mps 623 mmHg 85%
    14:00 +21°C° 1.5 mm 1 mps 623 mmHg 88%
    15:00 +18°C° 1.5 mm 0 mps 622 mmHg 91%
    16:00 +18°C° 1.5 mm 0 mps 621 mmHg 94%
    17:00 +17°C° 1.4 mm 0 mps 621 mmHg 95%
    18:00 +17°C° 1.4 mm 0 mps 621 mmHg 96%
    19:00 +16°C° 1.4 mm 0 mps 622 mmHg 97%
    20:00 +16°C° 0.8 mm 0 mps 622 mmHg 97%
    21:00 +16°C° 0.8 mm 0 mps 622 mmHg 97%
    22:00 +16°C° 0.8 mm 0 mps 623 mmHg 97%
    23:00 +15°C° 0.4 mm 0 mps 622 mmHg 97%

    22 November, Friday

    Time Temperature Precipitation Wind Pressure Humidity
    00:00 +15°C° 0.4 mm 0 mps 622 mmHg 97%
    01:00 +15°C° 0.4 mm 0 mps 622 mmHg 98%
    02:00 +15°C° 0.2 mm 0 mps 621 mmHg 98%
    03:00 +15°C° 0.2 mm 0 mps 621 mmHg 98%
    04:00 +15°C° 0.2 mm 0 mps 621 mmHg 98%
    05:00 +15°C° 0 mm 0 mps 621 mmHg 97%
    06:00 +16°C° 0 mm 0 mps 622 mmHg 97%
    07:00 +16°C° 0 mm 0 mps 622 mmHg 96%
    08:00 +17°C° 0.1 mm 0 mps 623 mmHg 91%
    09:00 +21°C° 0.1 mm 1 mps 624 mmHg 86%
    10:00 +22°C° 0.1 mm 1 mps 624 mmHg 81%
    11:00 +22°C° 1 mm 1 mps 624 mmHg 83%
    12:00 +22°C° 1 mm 1 mps 623 mmHg 85%
    13:00 +22°C° 1 mm 1 mps 622 mmHg 86%
    14:00 +22°C° 1.4 mm 1 mps 622 mmHg 88%
    15:00 +21°C° 1.4 mm 1 mps 621 mmHg 90%
    16:00 +21°C° 1.4 mm 1 mps 621 mmHg 92%
    17:00 +20°C° 0.9 mm 1 mps 621 mmHg 94%
    18:00 +19°C° 0.9 mm 1 mps 621 mmHg 96%
    19:00 +16°C° 0.9 mm 0 mps 621 mmHg 97%
    20:00 +16°C° 1.2 mm 0 mps 622 mmHg 97%
    21:00 +16°C° 1.2 mm 0 mps 622 mmHg 97%
    22:00 +16°C° 1.2 mm 0 mps 622 mmHg 97%
    23:00 +15°C° 0.9 mm 0 mps 622 mmHg 97%
    Show more